Location: Taaricht
(32.5378°N, 5.4251°W)
Time: 12:18:54
(UTC+00:00)

ISS - Visible Passes

Search period start: 15 July 2020 00:00
Search period end: 25 July 2020 00:00
Orbit: 417 x 419 km, 51.6° (Epoch: 16 July)

Date Brightness Start Highest point End Pass type
(mag) Time Alt. Az. Time Alt. Az. Time Alt. Az.
15 Jul -1.3 03:54:26 10° NNW 03:57:19 25° NE 04:00:10 10° E visible
15 Jul -3.7 20:33:36 10° SW 20:36:57 79° NW 20:40:19 10° NE visible
16 Jul -0.6 03:07:01 10° N 03:09:13 16° NNE 03:11:23 10° ENE visible
16 Jul -3.5 04:42:55 10° WNW 04:46:09 45° SW 04:49:21 10° SSE visible
16 Jul -0.5 21:23:57 10° WNW 21:26:00 15° NNW 21:28:04 10° N visible
17 Jul -0.1 02:20:16 10° NNE 02:21:01 11° NNE 02:21:47 10° NE visible
17 Jul -3.8 03:54:52 10° NW 03:58:14 87° NE 04:01:35 10° SE visible
17 Jul -1.1 20:35:06 10° W 20:37:53 24° NW 20:40:41 10° NNE visible
18 Jul -2.0 03:11:32 28° E 03:11:32 28° E 03:13:27 10° ESE visible
18 Jul -1.9 04:45:10 10° W 04:46:42 13° SW 04:48:13 10° SSW visible
19 Jul -0.1 20:38:30 10° NW 20:39:02 10° NNW 20:39:33 10° NNW visible
